FW3317 Weather Reports


Display with metric or nautical units.
time (UTC)temp
F
wind
direction
speed
MPH
gust
MPH
rain 1hr
in
rain 24hr
in
rain mn
in
humidity
%
barometer
mb
20260507060010 50 360 0.0 1.0 0.00 0.25 0.00 85 1007.6
20260507054512 50 360 0.0 2.0 0.00 0.25 0.00 85 1008.2
20260507053014 50 360 0.0 3.0 0.00 0.25 0.00 86 1008.1
20260507051517 51 360 0.0 2.0 0.00 0.25 0.00 86 1008.2
20260507050043 51 360 0.0 3.0 0.00 0.25 0.00 86 1008.0
20260507044524 51 360 0.0 3.0 0.00 0.25 0.00 87 1007.8
20260507043021 52 360 0.0 4.0 0.00 0.25 0.00 87 1008.0
20260507041526 52 360 0.0 3.0 0.00 0.25 0.00 87 1008.1
20260507040026 52 360 1.0 4.0 0.00 0.25 0.25 88 1008.0
20260507034519 53 360 0.0 4.0 0.00 0.25 0.25 89 1007.8
20260507033029 55 360 1.0 3.0 0.00 0.25 0.25 89 1007.4
20260507031525 56 347 0.0 4.0 0.00 0.25 0.25 89 1007.2
20260507030024 57 88 0.0 3.0 0.00 0.25 0.25 90 1007.1
20260507024523 58 130 2.0 7.0 0.00 0.25 0.25 90 1006.7
20260507023100 59 71 2.0 5.0 0.00 0.25 0.25 92 1006.8
20260507023003 59 51 1.0 5.0 0.00 0.25 0.25 92 1006.7
20260507021605 59 355 0.0 4.0 0.00 0.25 0.25 92 1006.2
20260507021517 59 355 0.0 4.0 0.00 0.25 0.25 92 1006.2
20260507020047 59 326 0.0 2.0 0.00 0.25 0.25 92 1006.3
20260507014551 59 266 0.0 6.0 0.00 0.25 0.25 92 1006.3
20260507013055 58 240 1.0 6.0 0.00 0.25 0.25 92 1006.3
20260507011558 58 336 1.0 8.0 0.00 0.25 0.25 92 1006.4
20260507010013 58 328 0.0 4.0 0.00 0.25 0.25 92 1006.2
20260507004510 58 309 0.0 4.0 0.00 0.25 0.25 92 1006.2
20260507003010 58 342 1.0 4.0 0.01 0.25 0.25 92 1005.8
20260507001513 58 257 1.0 4.0 0.01 0.25 0.25 92 1005.9
20260507000054 58 255 2.0 6.0 0.01 0.25 0.25 92 1005.9
20260506234614 58 42 1.0 10.0 0.02 0.25 0.25 92 1005.8
20260506233055 58 302 1.0 6.0 0.01 0.24 0.24 92 1005.8
20260506231558 58 360 1.0 3.0 0.01 0.24 0.24 92 1005.8
20260506230002 59 284 1.0 6.0 0.01 0.24 0.24 91 1006.0
20260506224600 59 328 1.0 6.0 0.00 0.23 0.23 91 1006.1
20260506224504 59 302 0.0 6.0 0.00 0.23 0.23 91 1006.1
20260506223015 59 290 1.0 3.0 0.01 0.23 0.23 91 1006.1
20260506221510 59 265 2.0 6.0 0.03 0.23 0.23 91 1006.2
20260506220053 59 317 1.0 4.0 0.05 0.23 0.23 91 1006.2
20260506214554 59 325 2.0 5.0 0.07 0.23 0.23 91 1006.3
20260506213056 59 238 2.0 4.0 0.07 0.22 0.22 91 1006.3
20260506211556 60 311 1.0 8.0 0.06 0.20 0.20 91 1006.4
20260506210056 60 5 1.0 4.0 0.06 0.18 0.18 90 1006.5
20260506204559 60 257 2.0 5.0 0.04 0.16 0.16 90 1006.6
20260506203054 61 267 0.0 4.0 0.03 0.15 0.15 90 1006.6
20260506203003 61 218 0.0 4.0 0.03 0.15 0.15 90 1006.6
20260506201558 61 13 2.0 8.0 0.02 0.14 0.14 89 1006.8
20260506194547 61 269 0.0 3.0 0.02 0.12 0.12 90 1007.0
20260506193028 62 323 0.0 3.0 0.04 0.12 0.12 90 1006.8
20260506191534 62 300 0.0 4.0 0.07 0.12 0.12 89 1006.5
20260506190040 62 306 0.0 0.0 0.08 0.11 0.11 89 1007.0
20260506184536 62 306 0.0 0.0 0.09 0.10 0.10 88 1007.3
20260506183043 63 323 0.0 0.0 0.08 0.08 0.08 86 1007.5
20260506181547 63 323 0.0 0.0 0.05 0.05 0.05 86 1007.7
20260506180042 64 319 0.0 2.0 0.03 0.03 0.03 83 1007.6
20260506174528 67 319 0.0 2.0 0.01 0.01 0.01 77 1007.8
20260506173029 71 15 3.0 11.0 0.00 0.00 0.00 64 1007.4
20260506171541 72 344 4.0 16.0 0.00 0.00 0.00 60 1007.2
20260506170040 72 167 4.0 14.0 0.00 0.00 0.00 61 1007.3
20260506164544 71 270 3.0 9.0 0.00 0.00 0.00 64 1007.5
20260506163040 70 240 2.0 8.0 0.00 0.00 0.00 65 1007.7
20260506161551 70 355 1.0 8.0 0.00 0.00 0.00 66 1008.2
20260506160047 69 5 5.0 11.0 0.00 0.00 0.00 66 1008.6
20260506154555 69 288 3.0 12.0 0.00 0.00 0.00 67 1008.9
20260506153056 69 190 4.0 9.0 0.00 0.00 0.00 67 1009.1
20260506151608 69 242 1.0 9.0 0.00 0.00 0.00 67 1009.4
20260506151501 69 306 2.0 9.0 0.00 0.00 0.00 67 1009.5
20260506150007 69 238 1.0 19.0 0.00 0.00 0.00 69 1009.2
20260506144504 68 343 3.0 10.0 0.00 0.00 0.00 69 1009.4
20260506143025 68 327 1.0 6.0 0.00 0.00 0.00 71 1009.2
20260506141509 67 327 3.0 9.0 0.00 0.00 0.00 72 1009.4
20260506140011 66 229 3.0 9.0 0.00 0.00 0.00 73 1009.2
20260506134514 65 319 2.0 9.0 0.00 0.00 0.00 75 1009.3
20260506133013 65 304 2.0 8.0 0.00 0.00 0.00 76 1009.4
20260506131517 64 290 2.0 6.0 0.00 0.00 0.00 76 1009.6
20260506130115 64 262 2.0 7.0 0.00 0.00 0.00 75 1009.6
20260506124503 64 344 2.0 8.0 0.00 0.00 0.00 76 1009.7
20260506123006 64 276 1.0 8.0 0.00 0.00 0.00 77 1009.4
20260506121510 63 250 1.0 9.0 0.00 0.00 0.00 77 1009.7
20260506120012 62 257 2.0 7.0 0.00 0.00 0.00 78 1009.8
20260506114520 62 316 0.0 5.0 0.00 0.00 0.00 79 1009.9
20260506113019 61 227 2.0 5.0 0.00 0.00 0.00 79 1010.0
20260506111559 61 247 2.0 6.0 0.00 0.00 0.00 79 1010.1
20260506111501 61 252 2.0 6.0 0.00 0.00 0.00 79 1010.2
20260506110007 60 311 1.0 4.0 0.00 0.00 0.00 80 1010.1
20260506104507 60 332 1.0 5.0 0.00 0.00 0.00 80 1010.2
20260506103015 60 229 1.0 8.0 0.00 0.00 0.00 79 1010.0
20260506101535 60 229 2.0 5.0 0.00 0.00 0.00 79 1010.0
20260506100021 60 252 0.0 5.0 0.00 0.00 0.00 79 1010.1
20260506094522 60 274 1.0 5.0 0.00 0.00 0.00 79 1010.0
20260506093023 60 240 1.0 3.0 0.00 0.00 0.00 78 1009.9
20260506091528 60 349 1.0 4.0 0.00 0.00 0.00 78 1010.0
20260506090029 61 323 0.0 4.0 0.00 0.00 0.00 77 1010.0
20260506084535 61 249 0.0 4.0 0.00 0.00 0.00 76 1010.1
20260506083035 61 360 1.0 6.0 0.00 0.00 0.00 76 1010.1
20260506081533 62 355 1.0 4.0 0.00 0.00 0.00 75 1009.9
20260506073048 62 291 2.0 8.0 0.00 0.00 0.00 73 1009.9
20260506071604 62 278 1.0 6.0 0.00 0.00 0.00 72 1009.7
20260506061547 63 326 1.0 3.0 0.00 0.00 0.00 69 1009.7